Wind_Speed
42 41 40 39 38 37 35 34 33 33 32 31 30 29 29 28 27 27 27 27 27 27 27 28 28 29 30 30 31 32 34 35 36 37 38 40 41 42 43 44 44 45 46
44 42 41 41 39 38 37 36 35 34 33 32 31 30 30 29 28 28 28 28 28 28 28 29 29 29 30 31 32 33 35 36 37 38 40 41 42 43 44 45 46 47 48
46 45 43 42 41 40 39 38 36 35 35 34 33 32 31 30 30 29 29 29 29 29 29 29 30 30 31 32 33 34 36 37 38 39 41 42 43 45 46 46 47 48 49
48 46 45 44 43 42 41 40 38 37 36 35 34 33 32 31 30 30 30 30 30 29 30 30 31 31 32 33 34 35 36 38 39 40 42 43 45 46 47 48 48 49 50
50 49 47 46 44 44 42 41 40 39 37 36 35 34 34 32 31 31 31 31 31 31 31 31 32 32 33 34 35 36 37 39 40 41 43 44 46 47 48 48 49 50 52
52 50 48 47 46 45 45 43 42 41 39 37 37 35 35 34 32 31 32 32 32 32 32 32 33 33 34 35 36 37 38 40 41 43 44 45 46 48 49 49 50 52 53
54 52 50 48 47 46 46 45 44 42 41 39 38 37 35 35 33 33 33 33 33 33 33 34 34 34 35 36 37 38 39 41 42 43 45 46 47 49 50 50 52 53 55
56 53 51 50 48 46 46 46 46 44 43 41 39 38 36 36 35 34 33 33 34 34 34 34 35 35 36 37 38 39 40 41 42 44 45 47 48 50 50 51 53 55 56
57 54 53 51 50 47 48 48 46 45 43 42 40 38 37 36 35 34 34 34 34 35 35 35 36 37 37 38 39 40 41 42 43 44 46 47 49 50 51 53 54 56 57
57 55 53 52 52 49 48 48 47 46 45 43 40 39 38 37 36 35 35 35 35 35 36 36 36 37 38 38 39 41 41 42 43 45 46 48 50 51 52 54 55 57 58
56 55 53 52 51 50 47 48 48 46 45 43 40 39 39 38 37 36 36 36 36 36 36 36 37 38 38 39 40 41 41 42 44 46 47 49 50 51 53 54 56 57 59
54 54 53 52 51 51 49 49 49 46 44 43 42 41 40 39 37 37 37 36 36 36 36 37 38 38 39 39 40 41 42 43 44 46 48 49 51 52 54 55 56 58 59
53 52 53 51 50 49 49 49 49 47 44 43 42 41 40 39 38 38 38 37 37 37 37 37 38 38 39 40 40 42 42 43 45 47 49 50 51 53 55 55 57 58 58
51 51 51 51 49 47 48 48 48 46 44 43 42 42 41 39 39 39 38 37 37 37 36 37 37 38 39 40 41 42 43 44 45 47 49 50 52 53 54 55 57 58 57
48 50 51 50 50 48 47 47 46 45 43 42 41 41 41 39 39 38 38 38 37 37 36 37 37 38 39 40 41 42 43 45 46 48 49 51 52 53 54 55 56 56 55
47 48 49 49 49 48 46 45 43 43 43 41 41 41 41 39 38 37 37 37 36 37 37 37 37 38 39 40 41 42 44 45 46 48 50 51 52 53 54 54 55 55 54
46 46 49 49 48 47 46 44 43 42 43 42 42 42 41 39 37 37 37 36 36 37 37 36 36 37 39 41 41 42 43 45 46 48 49 51 52 52 52 53 54 53 52
45 46 46 47 47 46 45 44 43 43 41 40 40 40 39 37 36 36 36 35 36 36 36 36 36 37 39 40 41 42 43 45 46 48 49 50 51 51 51 52 51 51 50
44 46 46 46 47 46 45 44 44 43 42 41 39 39 38 36 36 36 35 35 35 36 36 36 36 37 39 40 40 41 43 44 46 47 49 49 50 50 50 50 49 49 49
43 45 46 46 46 46 45 43 43 42 41 40 38 38 37 36 36 36 35 35 35 36 36 36 36 37 38 39 40 41 42 44 45 47 48 48 48 48 47 47 48 48 48
42 43 44 44 46 46 45 42 41 41 41 39 38 37 36 36 36 36 36 35 35 35 35 36 37 37 37 38 39 40 42 43 45 46 47 47 46 46 45 45 47 48 48
43 44 42 43 45 44 43 41 40 40 40 39 38 37 36 35 36 36 36 36 35 35 36 36 36 36 37 38 39 41 43 43 43 44 45 45 44 44 44 45 46 47 48
43 44 44 43 44 44 43 41 39 40 40 39 38 37 36 36 36 36 36 35 35 35 35 34 34 35 36 37 39 40 41 41 41 42 43 43 42 43 44 45 46 47 47
40 42 44 44 43 43 41 40 40 40 40 40 38 36 36 36 35 35 34 34 34 34 33 33 33 34 36 37 38 39 39 39 39 41 42 41 41 42 43 44 46 47 48
37 39 41 42 43 43 42 42 41 41 40 40 39 37 37 36 36 35 35 34 33 32 32 33 34 35 36 37 37 37 37 37 39 39 39 39 40 41 44 46 46 47 47
36 36 38 41 42 42 42 42 42 41 40 39 39 37 36 35 35 34 34 34 33 33 33 34 34 35 36 36 35 36 36 36 37 37 38 38 40 42 44 45 46 46 46
Wind_Direction
244 244 245 246 246 247 248 249 250 252 255 257 261 263 267 270 274 278 280 283 286 289 291 294 297 300 302 304 305 307 309 311 312 313 314 315 315 315 315 315 314 314 314
242 242 243 245 245 246 248 250 250 251 253 256 259 262 266 268 272 276 279 282 285 288 291 294 297 300 302 303 305 307 309 310 312 313 314 315 316 316 315 315 315 314 314
240 241 241 243 243 244 246 248 249 250 252 255 258 261 265 267 270 274 278 280 284 287 291 294 296 299 301 303 305 307 309 311 312 314 314 315 316 316 316 315 315 315 315
239 239 239 242 242 243 245 245 248 250 251 254 257 260 263 266 269 273 276 279 283 287 290 293 296 298 300 302 305 307 309 311 312 314 315 316 316 316 316 315 315 315 315
237 238 238 240 242 242 242 244 246 249 251 252 256 258 261 265 269 272 276 279 282 285 289 292 295 297 299 302 305 306 308 310 312 313 314 315 316 316 316 316 316 316 316
235 236 237 238 240 242 242 242 244 247 249 252 254 257 260 263 267 271 275 278 281 284 288 290 294 296 299 302 303 305 307 309 311 312 314 315 316 317 316 316 316 316 316
234 235 235 236 238 240 241 241 242 245 249 251 254 257 260 262 265 269 274 277 280 284 286 289 292 296 298 301 302 304 306 308 310 312 313 315 316 317 316 316 316 317 317
231 231 233 235 236 238 240 241 241 244 248 250 253 256 259 261 264 268 272 276 279 282 286 289 292 294 297 300 302 304 305 307 310 312 313 315 316 317 317 316 316 317 317
230 230 231 233 234 237 241 241 241 243 247 249 252 255 258 260 263 266 271 275 279 282 285 288 291 294 296 300 302 304 306 308 310 311 313 315 316 316 317 317 317 317 318
229 229 230 232 233 235 239 240 240 242 246 248 251 254 257 260 263 266 270 274 278 281 284 288 291 293 296 299 302 304 306 308 309 311 313 314 316 317 317 318 318 318 319
228 228 229 230 231 233 237 239 240 242 245 248 251 254 256 259 262 265 269 274 277 280 283 287 289 292 295 298 301 304 306 307 309 311 313 315 316 317 318 318 319 319 319
227 228 228 229 231 233 236 239 240 242 244 247 250 253 256 258 261 264 268 273 276 279 282 286 288 291 295 298 301 303 305 307 309 312 314 315 316 317 318 318 319 319 320
228 228 228 229 231 232 234 238 241 241 243 246 249 252 255 258 260 263 267 270 274 278 281 285 288 291 294 298 301 303 305 307 310 312 314 315 316 317 318 318 319 320 320
227 227 229 229 231 232 235 238 241 242 242 244 247 251 254 257 260 264 266 269 273 276 280 285 288 290 294 297 300 303 305 308 311 313 314 315 317 317 318 319 319 321 321
226 227 228 228 230 231 234 237 241 242 242 245 248 251 254 257 260 263 267 269 272 275 280 284 287 290 294 297 300 303 305 308 311 313 314 316 317 318 319 319 321 322 322
226 226 227 228 228 230 233 236 240 241 242 245 248 251 253 256 259 264 267 271 273 277 281 284 287 291 294 297 300 303 305 308 311 313 315 316 317 318 319 320 321 322 323
226 226 227 228 229 230 232 234 238 241 242 245 249 252 253 255 259 263 267 271 274 278 281 284 288 291 294 297 301 303 306 308 311 313 315 317 317 318 319 321 321 323 324
226 227 228 229 229 229 232 234 237 239 242 244 248 252 254 256 260 264 267 271 274 278 281 284 288 292 294 298 301 303 305 309 312 314 316 317 318 319 320 321 323 324 325
227 228 228 230 229 229 232 234 237 239 242 245 247 251 253 256 260 264 267 270 273 276 280 284 289 292 295 297 300 304 307 310 313 314 316 317 319 320 321 322 324 325 326
227 229 228 229 228 229 232 234 237 239 242 244 247 250 253 257 260 263 266 269 273 276 280 284 289 292 295 299 302 305 308 309 312 315 316 318 320 321 322 323 324 326 326
227 228 227 229 230 231 232 235 238 241 242 244 247 249 252 256 260 262 265 269 273 276 280 285 289 291 295 299 302 305 307 309 312 315 317 318 320 322 323 323 325 326 327
229 228 228 230 230 231 233 236 239 242 242 244 247 248 251 255 259 263 265 268 272 276 281 285 288 291 296 299 302 305 307 309 312 315 317 319 321 323 323 323 325 326 327
229 227 226 228 230 230 232 234 237 240 242 244 246 249 252 256 258 262 265 268 272 277 281 284 288 292 296 299 301 304 307 310 313 316 318 320 321 323 324 323 325 327 328
229 228 227 227 228 229 232 235 237 239 242 243 245 249 252 255 258 261 264 268 273 276 279 284 289 293 296 299 302 305 307 310 313 316 318 319 321 323 325 325 326 328 328
229 230 230 229 229 230 233 237 238 239 242 243 244 248 252 254 257 260 263 268 272 275 279 284 290 293 296 299 303 305 308 311 313 315 317 319 321 323 324 326 327 328 328
230 232 232 231 231 231 234 237 238 240 242 244 245 248 249 252 256 259 263 267 270 274 278 284 288 292 296 298 301 304 307 310 312 314 317 319 321 323 325 326 328 328 328
Height
5798 5801 5804 5806 5809 5811 5814 5816 5819 5821 5822 5824 5825 5825 5826 5826 5825 5825 5824 5823 5821 5820 5818 5816 5813 5811 5808 5805 5802 5799 5795 5791 5787 5782 5778 5773 5768 5763 5757 5752 5746 5740 5735
5789 5792 5796 5798 5801 5804 5807 5810 5812 5814 5816 5817 5819 5820 5820 5820 5820 5819 5818 5817 5816 5814 5812 5810 5808 5806 5803 5800 5797 5793 5789 5785 5781 5776 5771 5766 5761 5756 5750 5744 5738 5732 5726
5779 5783 5787 5791 5794 5797 5800 5802 5804 5807 5809 5811 5812 5813 5814 5814 5814 5814 5813 5812 5810 5809 5807 5805 5803 5800 5797 5794 5791 5787 5783 5779 5775 5770 5765 5760 5754 5748 5743 5736 5730 5724 5717
5769 5774 5778 5782 5785 5789 5792 5794 5797 5800 5802 5804 5806 5807 5808 5808 5808 5808 5807 5806 5805 5803 5801 5799 5797 5794 5791 5788 5785 5781 5777 5773 5768 5763 5758 5752 5747 5741 5735 5728 5722 5715 5708
5759 5764 5768 5773 5777 5780 5783 5786 5790 5792 5795 5797 5799 5800 5801 5802 5802 5802 5801 5800 5799 5797 5795 5793 5791 5788 5785 5782 5779 5775 5770 5766 5761 5756 5751 5745 5739 5733 5726 5720 5713 5706 5699
5748 5753 5759 5763 5767 5771 5775 5778 5781 5784 5787 5789 5791 5792 5794 5795 5795 5795 5795 5794 5793 5791 5789 5787 5785 5782 5779 5776 5772 5768 5764 5759 5754 5749 5743 5738 5731 5725 5718 5711 5704 5696 5689
5736 5742 5748 5753 5757 5761 5765 5769 5773 5776 5778 5781 5783 5785 5786 5787 5788 5788 5788 5787 5786 5785 5783 5781 5778 5775 5772 5769 5765 5761 5757 5752 5747 5741 5736 5730 5723 5716 5709 5702 5695 5687 5678
5723 5730 5737 5743 5748 5752 5756 5760 5764 5767 5770 5773 5776 5777 5779 5780 5781 5781 5781 5780 5779 5778 5776 5774 5771 5769 5766 5762 5758 5754 5749 5744 5739 5734 5728 5722 5715 5708 5700 5693 5685 5676 5668
5711 5718 5725 5732 5737 5742 5747 5751 5754 5759 5762 5765 5767 5770 5771 5773 5773 5774 5774 5773 5772 5771 5769 5767 5764 5761 5758 5755 5751 5746 5742 5737 5731 5726 5720 5713 5706 5699 5691 5683 5675 5666 5657
5698 5706 5713 5720 5726 5732 5737 5741 5745 5749 5753 5756 5759 5762 5764 5765 5766 5766 5766 5766 5765 5763 5762 5760 5757 5754 5751 5747 5743 5739 5734 5729 5723 5718 5711 5705 5697 5690 5682 5673 5665 5655 5646
5686 5694 5702 5709 5715 5721 5727 5731 5735 5739 5744 5747 5751 5753 5755 5757 5757 5758 5758 5758 5757 5756 5754 5752 5750 5747 5743 5740 5736 5731 5726 5721 5715 5709 5703 5696 5689 5681 5672 5663 5654 5645 5635
5675 5683 5691 5698 5705 5711 5717 5721 5726 5730 5734 5739 5742 5744 5746 5748 5749 5750 5750 5749 5749 5748 5746 5744 5741 5739 5736 5732 5728 5723 5718 5713 5707 5701 5695 5687 5680 5671 5663 5654 5644 5634 5624
5664 5673 5681 5688 5694 5701 5707 5712 5716 5721 5725 5729 5733 5736 5738 5739 5740 5741 5741 5741 5741 5740 5738 5736 5733 5731 5727 5724 5720 5715 5710 5705 5699 5693 5686 5679 5670 5662 5653 5644 5634 5624 5614
5654 5663 5670 5678 5685 5690 5697 5702 5707 5712 5716 5720 5724 5726 5729 5730 5731 5732 5733 5733 5732 5731 5730 5728 5725 5723 5719 5715 5711 5707 5702 5696 5691 5684 5677 5669 5661 5652 5643 5634 5624 5614 5604
5645 5652 5660 5667 5675 5681 5687 5692 5697 5702 5707 5711 5715 5717 5720 5721 5723 5723 5724 5724 5724 5723 5722 5720 5717 5714 5711 5707 5703 5698 5693 5688 5682 5675 5668 5660 5652 5643 5634 5624 5614 5604 5594
5635 5643 5650 5658 5665 5671 5677 5682 5688 5693 5698 5702 5705 5708 5711 5713 5714 5715 5715 5716 5715 5714 5713 5712 5709 5706 5703 5699 5695 5690 5685 5679 5673 5667 5659 5651 5643 5634 5624 5615 5605 5595 5585
5627 5634 5641 5648 5654 5661 5667 5673 5679 5685 5689 5693 5696 5699 5702 5703 5705 5706 5707 5707 5707 5706 5705 5703 5701 5698 5694 5691 5686 5682 5676 5671 5664 5658 5650 5642 5633 5624 5615 5606 5596 5586 5577
5617 5625 5632 5639 5645 5651 5658 5665 5671 5675 5679 5684 5687 5690 5693 5695 5697 5698 5699 5699 5698 5697 5696 5695 5693 5690 5686 5682 5678 5673 5668 5662 5656 5648 5641 5633 5624 5615 5606 5597 5587 5578 5569
5609 5615 5622 5629 5636 5643 5650 5656 5661 5666 5671 5675 5678 5681 5684 5686 5688 5689 5690 5690 5690 5689 5687 5686 5684 5681 5678 5674 5670 5664 5659 5653 5647 5639 5632 5624 5615 5606 5597 5588 5579 5570 5562
5600 5607 5614 5621 5627 5634 5641 5647 5652 5657 5661 5665 5669 5672 5675 5678 5679 5680 5681 5681 5681 5680 5679 5678 5676 5673 5670 5666 5661 5656 5650 5645 5638 5631 5623 5615 5607 5598 5589 5580 5572 5564 5555
5591 5598 5605 5612 5619 5625 5632 5638 5643 5648 5652 5656 5660 5664 5667 5669 5670 5671 5672 5673 5672 5672 5671 5669 5667 5665 5661 5657 5653 5648 5642 5636 5629 5622 5614 5607 5599 5591 5582 5573 5565 5556 5547
5582 5589 5595 5603 5610 5616 5623 5629 5634 5639 5643 5648 5651 5654 5657 5659 5661 5662 5663 5664 5664 5663 5662 5661 5659 5656 5653 5649 5644 5639 5634 5628 5622 5615 5607 5599 5591 5583 5575 5567 5558 5550 5541
5573 5580 5587 5593 5600 5607 5614 5620 5625 5629 5634 5638 5642 5645 5648 5650 5652 5654 5655 5655 5655 5655 5654 5652 5650 5648 5645 5641 5636 5631 5625 5619 5613 5606 5599 5591 5584 5576 5568 5560 5552 5543 5534
5564 5571 5578 5584 5591 5598 5605 5610 5615 5620 5624 5628 5632 5635 5639 5641 5643 5645 5646 5646 5646 5646 5646 5644 5642 5639 5636 5632 5628 5623 5617 5611 5605 5598 5591 5584 5577 5570 5562 5553 5545 5536 5527
5556 5563 5569 5575 5582 5589 5595 5601 5605 5610 5615 5619 5623 5626 5629 5632 5634 5636 5637 5637 5638 5638 5637 5635 5633 5631 5627 5623 5619 5614 5609 5604 5598 5591 5585 5578 5571 5563 5555 5547 5539 5530 5520
5548 5554 5560 5566 5573 5579 5585 5591 5596 5601 5605 5610 5614 5617 5620 5622 5625 5626 5628 5628 5629 5629 5628 5626 5625 5622 5619 5615 5611 5607 5602 5597 5591 5585 5578 5572 5565 5557 5550 5541 5532 5523 5514